Location: ????????
(55.7667°N, 37.4833°E)
Time: 14:22:39
(UTC+00:00)

Cosmos 1980 - Pass Details

Date: 19 May 2025
Orbit: 837 x 846 km, 71.0° (Epoch: 20 June)

Event Time Altitude Azimuth Distance (km) Brightness Sun altitude
Rises 23:04:19 0° 325° (NW) 3,421 7.3 -11.5°
Reaches altitude 10° 23:06:47 10° 324° (NW) 2,481 6.6 -11.3°
Maximum altitude 23:12:29 80° 239° (WSW) 866 3.7 -11.0°
Drops below altitude 10° 23:18:08 10° 153° (SSE) 2,462 5.8 -10.6°
Sets 23:20:34 0° 153° (SSE) 3,392 6.5 -10.5°
